Kahului, HI

7:29 PM HST on August 24, 2016 (GMT -1000)
Kahului

Weather History for PHOG - March, 2013

Change the Weather History Date:

Monday, March 25, 2013

  Actual Average Record
Temperature  
Mean Temperature 73 °F 73 °F  
Max Temperature 84 °F 82 °F 88 °F (1981)
Min Temperature 61 °F 65 °F 55 °F (1954)
Degree Days  
Heating Degree Days 0 0  
Month to date heating degree days 0 0  
Since 1 July heating degree days 0 0  
Cooling Degree Days 8 8  
Month to date cooling degree days 188 192  
Year to date cooling degree days 621 601  
Growing Degree Days 22 (Base 50)    
Moisture  
Dew Point 65 °F    
Average Humidity 79    
Maximum Humidity 100    
Minimum Humidity 58    
Precipitation  
Precipitation 0.00 in 0.08 in 1.66 in (2015)
Month to date precipitation 0.92 1.94  
Year to date precipitation 5.87 6.70  
Snow  
Snow 0.00 in - - ()
Month to date snowfall 0.0  
Since 1 July snowfall 0.0  
Snow Depth 0.00 in    
Sea Level Pressure  
Sea Level Pressure 30.00 in    
Wind  
Wind Speed 8 mph (ENE)    
Max Wind Speed 20 mph    
Max Gust Speed 24 mph    
Visibility 10 miles    
Events      
T = Trace of Precipitation, MM = Missing Value Source: NWS Daily Summary

Daily Weather History Graph

Daily Weather History Graph

Search for Another Location

Airport or City:

Trip Planner

Search our weather history database for the weather conditions in past years. The results will help you decide how hot, cold, wet, or windy it might be!

Date:

Astronomy

Mar. 25, 2013 Rise Set
Actual Time 6:24 AM HST 6:38 PM HST
Civil Twilight 6:02 AM HST 7:00 PM HST
Nautical Twilight 5:36 AM HST 7:26 PM HST
Astronomical Twilight 5:10 AM HST 7:52 PM HST
Moon 5:26 PM HST 5:05 AM HST
Length of Visible Light 12h 57m
Length of Day
12h 13m
Waxing Gibbous, 97% of the Moon is Illuminated
Mar 25
Waxing Gibbous
Mar 26
Full
Apr 2
Last Quarter
Apr 9
New
Apr 18
First Quarter

Hourly Weather History & Observations

Time (HST) Temp. Heat Index Dew Point Humidity Pressure Visibility Wind Dir Wind Speed Gust Speed Precip Events Conditions
12:54 AM 64.9 °F - 64.0 °F 97% 30.01 in 10.0 mi Calm Calm - N/A   Clear
1:54 AM 66.0 °F - 64.9 °F 96% 30.00 in 10.0 mi South 3.5 mph - N/A   Partly Cloudy
2:54 AM 64.9 °F - 64.0 °F 97% 29.98 in 10.0 mi South 3.5 mph - N/A   Partly Cloudy
3:54 AM 64.0 °F - 63.0 °F 96% 29.98 in 10.0 mi ESE 5.8 mph - N/A   Clear
4:54 AM 62.1 °F - 62.1 °F 100% 29.98 in 10.0 mi SSE 4.6 mph - N/A   Clear
5:54 AM 63.0 °F - 62.1 °F 97% 29.99 in 10.0 mi ESE 8.1 mph - N/A   Partly Cloudy
6:54 AM 62.1 °F - 61.0 °F 96% 30.01 in 10.0 mi South 4.6 mph - N/A   Partly Cloudy
7:54 AM 71.1 °F - 63.0 °F 75% 30.03 in 10.0 mi ESE 3.5 mph - N/A   Scattered Clouds
8:54 AM 75.9 °F - 64.9 °F 69% 30.05 in 10.0 mi North 4.6 mph - N/A   Scattered Clouds
9:54 AM 78.1 °F - 69.1 °F 74% 30.04 in 10.0 mi NE 13.8 mph - N/A   Partly Cloudy
10:54 AM 81.0 °F 84.4 °F 70.0 °F 69% 30.03 in 10.0 mi ENE 13.8 mph 23.0 mph N/A   Scattered Clouds
11:54 AM 82.9 °F 85.8 °F 68.0 °F 60% 30.01 in 10.0 mi NE 13.8 mph - N/A   Scattered Clouds
12:54 PM 82.0 °F 85.5 °F 69.1 °F 65% 29.99 in 10.0 mi NE 18.4 mph - N/A   Scattered Clouds
1:54 PM 82.0 °F 84.5 °F 66.9 °F 60% 29.96 in 10.0 mi NNE 13.8 mph 20.7 mph N/A   Scattered Clouds
2:54 PM 82.9 °F 85.8 °F 68.0 °F 60% 29.96 in 10.0 mi NE 11.5 mph - N/A   Scattered Clouds
4:54 PM 78.1 °F - 66.9 °F 68% 29.96 in 10.0 mi NE 12.7 mph - N/A   Mostly Cloudy
5:54 PM 75.9 °F - 66.9 °F 74% 29.97 in 10.0 mi NNE 11.5 mph - N/A   Scattered Clouds
6:54 PM 73.9 °F - 64.9 °F 73% 29.99 in 10.0 mi NE 9.2 mph - N/A   Partly Cloudy
7:54 PM 71.1 °F - 64.0 °F 78% 30.00 in 10.0 mi ENE 6.9 mph - N/A   Scattered Clouds
8:54 PM 70.0 °F - 66.0 °F 87% 30.01 in 10.0 mi Calm Calm - N/A   Clear
9:54 PM 70.0 °F - 66.0 °F 87% 30.04 in 10.0 mi NE 3.5 mph - N/A   Clear
10:54 PM 66.9 °F - 64.9 °F 93% 30.04 in 10.0 mi Calm Calm - N/A   Clear
11:54 PM 66.9 °F - 64.0 °F 90% 30.03 in 10.0 mi Calm Calm - N/A   Clear